Location: Argonnex
(45.9500°N, 6.1333°E)
Time: 05:03:18
(UTC+00:00)

Cosmos 2266 Rocket - Pass Details

Date: 13 August 2024
Orbit: 933 x 1008 km, 82.9° (Epoch: 08 September)

Event Time Altitude Azimuth Distance (km) Brightness Sun altitude
Rises 02:52:02 0° 334° (NNW) 3,600 7.2 -15.7°
Reaches altitude 10° 02:56:03 10° 307° (NW) 2,654 6.2 -15.2°
Maximum altitude 02:58:32 13° 283° (WNW) 2,456 5.8 -14.8°
Enters shadow 02:59:47 12° 270° (W) 2,508 5.7 -14.7°
